AFR659 LFQQ-LGAV

Flight info

Callsign AFR659
Flight time N/A
Altitude FL350
Route CIV6L CIV UM617 BUPAL UL607 SPI LIRSU ULNOK VIBOM NOMBO RIDAR RADIZ NIPEL ZARVE KOTOR TUPUS MONID NAVSU EMKES XELMI AKIKA ENFAR TALAS UM749 ELPIS SIGFO UM749 ROPOX ROPO1K
Aircraft A321/M-SDE3FGHIRWY/LB1

Departure

Time 2026-05-04 06:15
Airport Lille Airport (LFQQ)

Arrival

Time N/A
Airport Athens Eleftherios Venizelos International Airport (LGAV)
Time Latitude Longitude Altitude Speed Heading
2026-05-04 06:15 50.53748 2.95225 5284 ft 186 kts 199°
2026-05-04 06:15 50.52540 2.94559 5882 ft 186 kts 202°
2026-05-04 06:15 50.51354 2.93792 6467 ft 186 kts 205°
2026-05-04 06:16 50.50169 2.92976 6964 ft 192 kts 199°
2026-05-04 06:16 50.48799 2.92859 7269 ft 210 kts 168°
2026-05-04 06:16 50.47496 2.94022 7565 ft 229 kts 136°
2026-05-04 06:16 50.46446 2.95994 7864 ft 246 kts 130°
2026-05-04 06:17 50.45309 2.98178 8137 ft 266 kts 131°
2026-05-04 06:17 50.44102 3.00464 8531 ft 282 kts 130°
2026-05-04 06:17 50.42929 3.02949 9123 ft 290 kts 121°
2026-05-04 06:17 50.42156 3.05852 9836 ft 294 kts 106°
2026-05-04 06:18 50.41697 3.08980 10488 ft 300 kts 103°
2026-05-04 06:18 50.41269 3.12245 10828 ft 317 kts 103°
2026-05-04 06:18 50.40804 3.15730 11132 ft 333 kts 104°
2026-05-04 06:20 50.37649 3.42688 14769 ft 382 kts 80°
2026-05-04 06:20 50.38658 3.46534 15288 ft 390 kts 57°
2026-05-04 06:21 50.45582 3.59926 17333 ft 405 kts 51°
2026-05-04 06:21 50.47344 3.63367 17787 ft 410 kts 51°
2026-05-04 06:22 50.49133 3.66891 18274 ft 413 kts 52°
2026-05-04 06:22 50.50919 3.70423 18735 ft 417 kts 52°
2026-05-04 06:25 50.65869 4.26561 24023 ft 454 kts 76°
2026-05-04 06:25 50.66786 4.31303 24422 ft 456 kts 76°
2026-05-04 06:26 50.67699 4.36046 24782 ft 459 kts 76°
2026-05-04 06:26 50.68616 4.40819 25178 ft 461 kts 76°
2026-05-04 06:26 50.69543 4.45661 25507 ft 465 kts 76°
2026-05-04 06:26 50.70472 4.50512 25838 ft 468 kts 76°
2026-05-04 06:27 50.70473 4.70294 27120 ft 458 kts 113°
2026-05-04 06:28 50.69495 4.75073 27419 ft 460 kts 114°
2026-05-04 06:28 50.68513 4.79816 27657 ft 464 kts 113°
2026-05-04 06:28 50.67546 4.84595 27904 ft 468 kts 113°
2026-05-04 06:28 50.66578 4.89492 28156 ft 471 kts 113°
2026-05-04 06:29 50.65615 4.94373 28557 ft 470 kts 113°
2026-05-04 06:29 50.64629 4.99234 29024 ft 468 kts 113°
2026-05-04 06:29 50.63633 5.04083 29402 ft 468 kts 114°
2026-05-04 06:29 50.62632 5.08926 29762 ft 468 kts 114°
2026-05-04 06:30 50.61629 5.13767 30142 ft 468 kts 114°
2026-05-04 06:30 50.60628 5.18596 30570 ft 466 kts 114°
2026-05-04 06:30 50.59629 5.23399 30952 ft 466 kts 114°
2026-05-04 06:30 50.58617 5.28255 31254 ft 466 kts 114°
2026-05-04 06:31 50.57615 5.33072 31600 ft 465 kts 114°
2026-05-04 06:31 50.56619 5.37858 31936 ft 465 kts 113°
2026-05-04 06:31 50.55617 5.42649 32245 ft 465 kts 114°
2026-05-04 06:31 50.54609 5.47460 32522 ft 465 kts 113°
2026-05-04 06:32 50.53605 5.52237 32818 ft 465 kts 113°
2026-05-04 06:33 50.43357 5.83094 34487 ft 459 kts 127°
2026-05-04 06:34 50.41677 5.87362 34701 ft 460 kts 127°
2026-05-04 06:34 50.40015 5.91592 34893 ft 460 kts 127°
2026-05-04 06:34 50.36667 6.00092 34940 ft 462 kts 127°
2026-05-04 06:36 50.23302 6.33749 34955 ft 459 kts 127°
2026-05-04 06:37 50.20216 6.42450 34957 ft 463 kts 121°
2026-05-04 06:37 50.17740 6.51732 34963 ft 468 kts 114°
2026-05-04 06:38 50.15938 6.61461 34969 ft 469 kts 108°
2026-05-04 06:40 50.09571 7.00444 34983 ft 468 kts 109°
2026-05-04 06:40 50.07983 7.09918 34987 ft 467 kts 109°
2026-05-04 06:41 50.06343 7.19631 34991 ft 467 kts 108°
2026-05-04 06:41 50.04706 7.29275 34992 ft 467 kts 108°
2026-05-04 06:42 50.03069 7.38872 34992 ft 466 kts 108°
2026-05-04 06:44 49.96392 7.77456 34991 ft 466 kts 109°
2026-05-04 06:44 49.94699 7.87105 34987 ft 465 kts 109°
2026-05-04 06:45 49.93011 7.96673 34986 ft 466 kts 109°
2026-05-04 06:45 49.91299 8.06319 34984 ft 466 kts 109°
2026-05-04 06:46 49.89608 8.15806 34986 ft 466 kts 109°
2026-05-04 06:46 49.87903 8.25302 34991 ft 466 kts 109°
2026-05-04 06:48 49.77884 8.55559 34991 ft 454 kts 132°
2026-05-04 06:48 49.75910 8.59361 34988 ft 454 kts 132°
2026-05-04 06:50 49.60282 8.89441 34995 ft 455 kts 133°
2026-05-04 06:51 49.56355 8.96966 34996 ft 456 kts 133°
2026-05-04 06:51 49.52389 9.04542 34995 ft 456 kts 133°
2026-05-04 06:52 49.48468 9.12009 34997 ft 456 kts 132°
2026-05-04 06:52 49.44765 9.19879 34999 ft 460 kts 127°
2026-05-04 06:53 49.41274 9.28089 35001 ft 460 kts 127°
2026-05-04 06:53 49.37815 9.36214 35002 ft 460 kts 127°
2026-05-04 06:54 49.34342 9.44335 35004 ft 461 kts 127°
2026-05-04 06:54 49.30841 9.52490 35006 ft 461 kts 127°
2026-05-04 06:55 49.27332 9.60639 35010 ft 461 kts 127°
2026-05-04 06:55 49.23829 9.68748 35010 ft 461 kts 127°
2026-05-04 06:57 49.09685 10.01238 35011 ft 462 kts 127°
2026-05-04 06:58 49.05903 10.09053 35014 ft 459 kts 133°
2026-05-04 06:58 49.01578 10.16136 35018 ft 457 kts 139°
2026-05-04 06:59 48.97090 10.22929 35015 ft 457 kts 139°
2026-05-04 06:59 48.92592 10.29729 35013 ft 458 kts 139°
2026-05-04 07:01 48.74584 10.56834 35011 ft 458 kts 139°
2026-05-04 07:02 48.70060 10.63593 35013 ft 459 kts 139°
2026-05-04 07:02 48.65527 10.70345 35015 ft 461 kts 139°
2026-05-04 07:03 48.63291 10.73674 35172 ft 462 kts 139°
2026-05-04 07:03 48.61002 10.77074 35442 ft 460 kts 139°
2026-05-04 07:03 48.58791 10.80546 35703 ft 460 kts 136°
2026-05-04 07:03 48.56719 10.84180 35922 ft 460 kts 133°
2026-05-04 07:04 48.54709 10.87907 36120 ft 460 kts 132°
2026-05-04 07:04 48.52691 10.91661 36312 ft 460 kts 132°
2026-05-04 07:04 48.50707 10.95345 36497 ft 459 kts 132°
2026-05-04 07:04 48.48708 10.99053 36666 ft 459 kts 132°
2026-05-04 07:05 48.46700 11.02771 36847 ft 459 kts 132°
2026-05-04 07:05 48.44707 11.06455 37021 ft 459 kts 132°
2026-05-04 07:05 48.40677 11.13883 37022 ft 459 kts 132°
2026-05-04 07:06 48.34657 11.24941 37022 ft 459 kts 132°
2026-05-04 07:07 48.30637 11.32309 37022 ft 459 kts 131°
2026-05-04 07:09 48.14515 11.61653 37019 ft 460 kts 131°
2026-05-04 07:09 48.10468 11.68961 37015 ft 460 kts 133°
2026-05-04 07:10 48.06417 11.76252 37016 ft 460 kts 132°
2026-05-04 07:12 47.90162 12.05324 37031 ft 461 kts 132°
2026-05-04 07:12 47.86091 12.12531 37051 ft 460 kts 133°
2026-05-04 07:13 47.82024 12.19728 37053 ft 460 kts 132°
2026-05-04 07:13 47.77973 12.26914 37070 ft 460 kts 132°
2026-05-04 07:14 47.67744 12.44916 37076 ft 460 kts 131°
2026-05-04 07:15 47.63651 12.52009 37081 ft 459 kts 134°
2026-05-04 07:15 47.59167 12.58576 37092 ft 457 kts 140°
2026-05-04 07:16 47.54467 12.64893 37093 ft 457 kts 139°
2026-05-04 07:16 47.49833 12.71124 37113 ft 457 kts 140°
2026-05-04 07:17 47.45296 12.77216 37110 ft 456 kts 140°